Location: Acts Church of Fort Worth
(32.6786°N, 97.2668°W)
Time: 08:12:23
(UTC+00:00)

Cosmos 1953 - Pass Details

Date: 18 January 2026
Orbit: 475 x 489 km, 82.5° (Epoch: 9 February)

Event Time Altitude Azimuth Distance (km) Brightness Sun altitude
Rises 00:39:01 0° 342° (NNW) 2,574 5.8 -10.9°
Reaches altitude 10° 00:41:15 10° 333° (NNW) 1,688 4.9 -11.3°
Maximum altitude 00:44:36 33° 268° (W) 839 4.0 -12.0°
Drops below altitude 10° 00:47:55 10° 203° (SSW) 1,672 5.3 -12.7°
Sets 00:50:08 0° 194° (SSW) 2,546 6.1 -13.1°
